Temperature
17 17 17 16 16 16 16 16 16 16 15 15 15 15 15 15 15 15 15 15 14 14 14 14 14 14 14 14 14 14 14 14 13 13 13 13 13 13 13 13 13 13 13
17 17 17 16 16 16 16 16 16 16 15 15 15 15 15 15 15 14 14 14 14 14 14 14 14 14 14 13 14 13 13 13 13 13 13 12 12 12 12 12 12 12 12
17 17 17 16 16 16 16 16 15 15 15 15 15 15 15 15 15 14 14 14 14 14 14 14 14 14 14 13 13 13 13 13 13 13 12 12 12 12 12 12 12 12 12
17 17 17 16 16 16 16 16 15 15 15 15 15 15 15 15 15 14 14 14 14 14 14 14 14 14 13 13 13 13 13 13 12 12 12 12 12 11 11 11 11 11 11
17 17 17 17 16 16 16 16 15 15 15 15 15 15 15 15 14 14 14 14 14 14 13 13 13 13 13 13 13 13 13 12 12 12 12 12 11 11 11 11 11 11 11
17 17 17 17 16 16 16 16 16 15 15 15 15 15 15 15 14 14 14 14 14 14 13 13 13 13 13 13 13 13 13 12 12 12 12 11 11 11 11 11 10 10 10
17 17 17 17 17 16 16 16 15 15 15 15 15 15 15 15 14 14 14 14 14 14 13 13 13 13 13 13 13 12 12 12 12 12 11 11 11 11 10 10 10 10 10
17 17 17 17 16 16 16 16 15 15 15 15 15 15 15 15 14 14 14 14 14 14 13 13 13 13 12 12 12 12 12 12 11 11 11 11 11 10 10 10 10 9 9
17 17 17 17 16 16 16 15 15 15 15 15 15 15 15 14 14 14 14 14 14 13 13 13 13 13 12 12 12 12 12 12 11 11 11 10 10 10 10 10 9 9 9
17 17 17 17 16 16 16 15 15 15 15 15 15 14 14 14 14 14 14 14 14 13 13 13 13 12 12 12 12 12 12 11 11 11 11 10 10 10 9 9 9 9 8
17 17 17 17 16 16 16 15 15 15 15 14 14 14 14 14 14 14 14 14 13 13 13 13 12 12 12 12 12 11 11 11 11 10 10 10 10 9 9 9 8 8 8
17 17 17 17 16 16 16 15 15 15 15 14 14 14 14 14 14 14 14 13 13 13 13 12 12 12 12 12 11 11 11 11 10 10 10 10 9 9 9 8 8 8 7
17 17 17 17 16 16 16 15 15 15 14 14 14 14 14 14 14 14 14 13 13 13 12 12 12 11 11 11 11 11 11 10 10 10 9 9 9 8 8 8 8 7 7
17 17 17 16 16 16 16 15 15 15 14 14 14 14 14 14 14 14 13 13 13 12 12 12 11 11 11 11 10 10 10 10 9 9 9 9 8 8 8 7 7 7 7
17 17 16 16 16 16 15 15 15 14 14 14 14 14 14 14 14 13 13 13 13 12 12 11 11 11 10 10 10 10 9 9 9 9 8 8 8 7 7 7 6 6 6
16 16 16 16 16 15 15 15 14 14 14 14 14 14 14 13 13 13 13 13 12 12 11 11 10 10 10 10 9 9 9 9 8 8 8 7 7 7 6 6 6 6 5
16 16 16 16 16 15 15 15 14 14 14 14 13 13 13 13 13 13 12 12 12 11 11 10 10 9 9 9 9 8 8 8 8 7 7 7 7 6 6 6 5 5 5
16 16 16 16 16 15 15 15 14 14 14 14 13 13 13 12 12 12 12 12 11 11 10 10 9 9 9 8 8 8 8 7 7 7 7 6 6 6 5 5 5 5 4
16 16 15 15 15 15 15 14 14 14 13 13 13 13 12 12 12 12 11 11 11 11 10 10 9 9 9 8 8 8 7 7 7 6 6 6 6 5 5 5 4 4 4
15 15 15 15 15 14 14 14 13 13 13 13 13 13 12 12 12 11 11 11 10 10 10 9 9 8 8 8 7 7 7 7 6 6 6 5 5 5 4 4 4 3 3
15 15 14 14 14 14 14 13 13 13 13 13 12 12 12 12 11 11 10 10 10 9 9 9 8 8 8 7 7 7 6 6 6 6 5 5 5 4 4 4 3 3 3
14 14 14 14 13 13 13 13 13 12 12 12 12 12 11 11 11 10 10 10 9 9 9 8 8 7 7 7 6 6 6 6 5 5 5 4 4 4 3 3 3 3 2
14 14 13 13 13 12 12 12 12 12 12 12 11 11 11 10 10 10 10 9 9 9 8 8 7 7 7 6 6 6 5 5 5 5 4 4 4 3 3 3 2 2 2
13 13 13 12 12 12 12 11 11 11 11 11 11 10 10 10 10 9 9 9 9 8 8 7 7 7 6 6 6 5 5 5 4 4 4 3 3 3 2 2 2 2 1
13 12 12 12 12 12 11 11 11 11 10 10 10 10 10 9 9 9 9 9 8 8 7 7 6 6 5 5 5 5 4 4 4 4 3 3 3 2 2 2 1 1 1
12 12 12 12 11 11 11 11 10 10 10 10 9 9 9 9 9 8 8 8 8 7 7 6 6 5 5 5 4 4 4 4 3 3 3 3 2 2 2 1 1 1 0
Wind_Speed
7 6 5 5 5 4 3 3 3 2 2 2 2 2 4 4 3 3 2 2 2 2 2 3 3 3 2 2 2 3 3 3 2 1 1 1 2 2 2 2 2 2 2
7 7 6 5 5 5 4 4 3 3 2 2 2 2 3 3 2 3 2 1 2 3 3 4 3 2 2 3 2 2 2 2 2 1 1 1 1 1 1 1 1 2 1
7 7 7 7 6 5 5 4 4 4 3 2 2 2 3 2 2 2 2 2 2 3 3 3 3 3 2 2 1 2 1 2 2 1 1 1 1 1 2 2 2 1 2
8 7 7 7 6 5 5 4 4 4 3 3 2 3 3 2 1 2 2 2 2 2 3 3 3 3 3 2 2 2 2 2 2 1 1 1 1 1 1 2 2 2 2
9 8 8 7 7 6 5 5 4 4 4 3 3 3 3 2 1 2 1 2 2 2 2 2 3 5 6 4 3 3 3 2 1 1 1 1 2 2 2 1 2 2 3
9 9 8 7 7 7 6 5 4 4 3 3 3 3 3 2 4 4 2 2 1 1 1 1 2 3 4 4 5 4 3 2 1 1 1 1 2 2 1 2 1 2 3
10 9 9 8 8 7 7 6 5 5 4 3 3 3 4 4 5 4 2 0 1 1 1 1 1 2 3 2 2 1 1 1 1 1 0 2 2 2 2 2 2 2 2
9 9 9 9 8 7 7 6 6 5 5 4 4 3 3 4 5 5 2 1 1 1 0 0 1 1 1 2 2 1 0 1 1 1 2 2 1 2 1 2 2 2 3
8 9 9 9 9 8 7 7 6 5 5 5 4 4 4 4 6 6 4 1 1 1 1 0 1 1 2 3 2 1 1 1 1 1 2 2 3 3 2 2 3 2 3
9 9 9 9 9 8 8 7 5 5 5 5 4 4 5 4 7 8 6 2 2 1 1 0 1 2 3 3 1 0 2 3 2 2 2 3 3 3 2 0 1 1 2
8 8 8 9 9 8 7 6 6 5 5 5 4 4 4 4 7 8 7 3 2 1 1 1 1 4 3 2 1 0 2 2 2 2 2 2 2 1 1 1 0 1 2
9 8 8 8 8 8 7 6 6 6 6 5 4 4 3 4 6 7 8 6 3 1 1 1 2 4 3 1 1 2 3 2 1 1 2 2 2 2 1 2 2 3 3
9 9 8 8 7 7 7 7 6 5 5 5 4 4 3 3 4 8 8 6 5 2 1 2 3 3 1 1 2 3 2 1 1 1 2 2 2 2 2 2 4 5 5
9 9 8 8 7 7 6 6 5 5 5 5 5 4 3 3 3 3 3 4 4 3 2 2 2 2 1 1 2 2 1 1 1 2 2 2 2 2 2 1 2 2 3
7 8 8 7 7 6 5 3 4 3 5 5 4 4 4 4 4 7 6 4 4 4 3 1 1 1 1 1 1 1 1 1 1 1 1 2 2 2 2 2 2 2 2
7 7 6 6 6 6 6 4 4 3 5 6 6 6 4 5 7 7 7 6 6 6 3 2 2 2 2 1 1 1 0 1 1 1 1 1 2 2 2 2 2 2 3
6 6 6 6 7 7 7 6 4 2 3 4 5 7 7 7 8 8 7 6 5 5 2 2 2 2 2 1 1 0 0 1 1 1 1 1 2 2 2 2 2 2 3
5 6 6 5 6 6 6 6 6 6 4 2 2 6 8 8 8 8 8 6 3 2 2 2 2 2 1 1 1 0 0 1 1 1 1 1 2 2 2 2 2 3 3
5 5 5 5 5 5 5 5 5 6 5 5 3 3 5 7 7 6 6 3 4 3 3 2 2 2 1 1 1 0 0 0 1 1 1 2 2 2 2 2 3 4 3
4 6 6 5 5 5 5 5 5 5 6 6 5 5 5 5 3 4 3 3 3 3 3 3 2 2 2 1 1 1 1 1 1 1 1 1 2 2 2 3 3 3 3
4 5 6 5 5 5 5 5 5 5 5 5 5 6 8 6 5 5 4 4 3 3 3 3 2 2 2 2 1 1 1 1 0 1 1 1 2 2 2 2 3 3 3
5 5 4 4 4 4 4 4 4 5 5 5 4 5 9 5 5 4 4 3 3 3 3 3 3 2 2 2 2 1 1 0 1 1 1 1 2 2 2 3 3 3 3
4 5 4 3 3 5 5 4 4 4 4 4 5 5 5 5 4 4 4 3 3 3 3 3 3 2 3 2 2 2 1 0 1 1 1 2 2 2 3 3 4 4 4
3 4 5 4 4 4 4 4 4 4 4 4 4 5 5 4 4 4 3 3 3 4 4 4 4 4 3 3 3 3 2 2 2 2 2 2 3 3 3 3 3 4 4
4 4 5 4 4 4 4 4 4 4 4 4 4 4 4 4 3 3 3 3 4 4 4 4 4 4 4 4 3 3 2 2 2 3 3 2 3 3 3 4 4 4 4
3 4 4 4 4 4 4 4 4 4 4 4 4 4 4 4 3 3 3 3 3 3 4 4 4 5 4 4 3 3 3 2 2 3 3 2 3 3 4 4 5 5 5
Wind_Direction
166 161 148 143 146 142 134 130 121 110 115 122 107 109 117 116 109 92 48 28 47 68 74 81 70 59 45 32 36 35 43 70 85 2 34 50 59 49 64 63 55 73 59
167 161 154 154 157 156 156 150 144 136 140 142 130 119 111 107 108 117 105 52 48 48 53 65 66 70 56 42 44 42 53 71 93 55 351 24 30 51 42 25 24 18 28
165 162 162 165 167 164 160 159 160 161 161 157 140 133 121 121 117 108 104 84 78 70 61 62 57 62 52 50 49 38 45 61 76 79 350 353 352 17 21 -0 7 1 346
165 166 166 165 162 161 158 161 167 162 154 151 147 133 131 130 125 128 112 86 82 81 76 67 57 62 47 36 47 29 49 54 48 47 2 337 343 341 35 350 342 342 334
166 170 172 169 163 162 161 163 167 163 161 157 151 138 136 131 108 86 91 102 102 97 90 88 88 86 76 60 55 38 41 41 28 24 347 351 342 352 340 311 322 317 322
169 172 168 165 162 164 166 170 171 164 163 163 160 149 142 129 116 101 67 31 31 102 124 122 123 105 102 91 77 64 64 58 36 26 2 340 320 326 328 339 331 346 320
169 169 166 166 166 171 174 172 171 166 170 170 168 157 150 147 142 140 132 324 346 19 76 113 91 96 110 127 102 68 41 55 157 164 298 295 312 320 330 333 328 320 283
169 167 166 170 170 170 171 172 173 171 171 174 180 175 160 169 164 165 177 233 265 280 287 146 146 140 135 127 112 92 224 226 221 195 197 255 292 322 320 305 289 305 309
170 171 172 171 166 168 173 173 174 176 173 174 180 179 172 171 173 171 165 201 211 225 215 207 157 133 101 98 93 356 325 303 290 212 218 256 297 311 340 4 339 333 311
174 175 171 166 163 169 172 169 168 173 175 171 176 180 177 172 176 176 172 189 218 217 194 136 106 118 104 93 115 349 309 302 321 336 320 307 308 311 313 207 238 284 302
166 165 162 161 163 165 165 165 165 167 168 174 181 188 181 172 171 175 175 188 210 216 184 181 150 139 132 117 75 281 279 300 318 314 303 307 326 340 3 2 295 204 244
155 155 160 161 165 167 165 170 171 169 173 182 182 188 182 170 164 176 181 191 196 172 202 168 151 150 156 184 239 272 303 328 317 314 315 314 317 314 322 356 328 298 261
155 159 163 162 161 162 165 170 173 172 175 182 182 189 188 168 164 168 173 184 193 181 149 132 145 167 179 228 266 285 308 289 257 266 280 286 281 290 337 349 336 326 313
162 164 165 164 164 166 165 169 174 180 181 185 189 188 179 165 155 156 164 170 172 174 171 151 156 195 210 228 266 271 241 228 219 239 259 278 302 321 318 303 300 303 303
167 165 167 166 163 162 155 155 175 174 177 179 184 176 173 183 187 171 168 171 169 169 159 155 170 176 212 234 238 244 236 260 268 261 276 301 309 308 300 300 300 303 300
172 170 167 164 160 157 149 129 84 119 133 146 151 152 147 152 146 145 147 148 151 156 148 170 198 203 211 216 211 245 278 276 281 274 258 266 281 287 292 299 298 292 292
173 168 164 166 164 163 164 163 156 122 105 122 147 152 154 155 150 147 144 136 140 147 153 196 197 197 206 205 187 180 290 304 316 332 298 295 298 301 302 301 306 306 298
173 166 162 163 163 167 171 171 170 167 164 157 157 160 160 159 157 154 148 130 131 164 191 203 198 192 187 173 155 141 5 352 348 340 339 331 321 320 327 319 305 304 304
166 163 162 162 165 170 171 172 173 174 168 160 145 149 161 151 145 152 154 164 173 191 202 200 192 179 172 163 161 166 182 275 310 332 334 331 330 326 317 317 315 314 307
160 160 162 165 170 172 173 176 179 176 170 168 167 165 158 150 158 170 187 197 192 191 184 180 183 172 166 167 176 183 209 260 308 322 324 329 329 328 312 306 313 316 313
161 165 167 172 175 175 177 181 179 174 174 171 168 165 163 169 176 182 190 202 200 195 183 173 171 167 162 167 172 192 208 225 255 306 319 323 324 320 316 315 311 308 309
166 171 180 178 176 177 179 179 176 173 173 168 161 163 168 173 177 179 186 194 190 176 163 157 161 158 157 157 163 175 185 262 332 329 322 321 322 321 318 314 313 315 313
164 165 174 178 174 177 184 183 177 172 167 165 161 160 173 184 177 174 177 174 163 153 141 138 143 137 121 120 114 117 123 39 321 324 324 319 320 316 310 305 305 309 309
171 171 178 186 180 176 178 178 173 170 167 166 165 168 176 180 173 167 161 153 150 146 140 138 142 143 130 114 96 94 89 71 34 5 338 317 310 307 306 305 303 303 301
186 185 183 182 179 178 178 178 177 172 168 169 172 171 167 163 163 161 155 151 151 151 145 136 132 132 129 121 113 107 95 66 34 7 350 316 301 304 304 304 301 302 301
190 191 184 178 175 179 179 180 180 176 172 170 167 163 161 162 163 159 152 149 150 151 146 138 135 132 124 115 114 115 96 54 9 345 342 314 290 294 299 297 299 297 295
Height
1542 1544 1546 1547 1549 1550 1551 1553 1554 1555 1556 1557 1557 1558 1558 1559 1559 1559 1560 1560 1560 1560 1560 1560 1560 1560 1560 1560 1560 1560 1560 1560 1559 1560 1560 1559 1558 1557 1556 1555 1554 1552 1551
1540 1543 1544 1546 1548 1549 1551 1552 1554 1555 1556 1557 1557 1558 1559 1559 1560 1560 1560 1560 1560 1560 1561 1560 1560 1560 1560 1560 1559 1559 1559 1559 1559 1559 1559 1558 1558 1557 1556 1554 1553 1552 1551
1539 1541 1543 1545 1547 1548 1550 1552 1553 1554 1555 1556 1557 1558 1559 1559 1559 1560 1560 1560 1560 1560 1561 1560 1560 1560 1560 1560 1559 1559 1559 1559 1559 1558 1558 1558 1557 1556 1555 1554 1552 1551 1550
1537 1539 1541 1543 1545 1547 1549 1550 1552 1554 1555 1556 1557 1557 1558 1559 1559 1560 1560 1560 1560 1560 1560 1560 1560 1560 1559 1559 1559 1559 1558 1558 1558 1557 1557 1556 1556 1555 1554 1552 1551 1550 1548
1534 1537 1539 1541 1543 1545 1547 1549 1551 1552 1554 1555 1556 1556 1557 1558 1558 1559 1559 1560 1560 1560 1560 1560 1560 1559 1559 1559 1558 1558 1558 1557 1557 1556 1555 1555 1554 1553 1552 1551 1549 1548 1547
1532 1534 1537 1539 1541 1543 1545 1547 1549 1551 1552 1553 1554 1555 1556 1557 1557 1558 1559 1559 1559 1559 1559 1559 1559 1558 1558 1558 1557 1557 1557 1556 1555 1555 1554 1553 1552 1552 1550 1549 1548 1546 1544
1529 1531 1534 1536 1538 1540 1543 1545 1547 1548 1550 1551 1553 1554 1554 1555 1556 1557 1557 1558 1558 1558 1558 1558 1557 1557 1557 1557 1556 1556 1555 1555 1554 1554 1553 1552 1551 1550 1549 1547 1546 1544 1543
1526 1529 1531 1533 1536 1538 1540 1542 1544 1546 1548 1549 1551 1552 1553 1554 1554 1555 1556 1556 1556 1556 1556 1556 1556 1556 1556 1555 1555 1554 1554 1553 1552 1552 1551 1550 1549 1548 1547 1545 1544 1542 1541
1524 1526 1528 1530 1533 1535 1537 1539 1541 1543 1545 1547 1548 1550 1551 1552 1552 1553 1554 1554 1554 1554 1554 1554 1554 1554 1554 1554 1553 1552 1552 1551 1550 1549 1548 1547 1546 1545 1544 1543 1541 1539 1537
1521 1523 1525 1527 1530 1532 1534 1536 1538 1541 1543 1544 1546 1547 1548 1549 1550 1551 1552 1552 1552 1552 1552 1552 1552 1552 1552 1551 1551 1550 1549 1548 1548 1546 1546 1545 1544 1542 1541 1540 1538 1537 1534
1518 1521 1523 1525 1527 1529 1532 1534 1536 1538 1540 1542 1543 1545 1546 1547 1548 1549 1549 1550 1550 1550 1549 1549 1550 1550 1549 1549 1548 1547 1546 1546 1544 1543 1542 1541 1540 1539 1538 1537 1536 1534 1532
1516 1518 1521 1523 1525 1527 1529 1531 1534 1535 1537 1539 1540 1542 1543 1544 1545 1546 1547 1547 1547 1547 1547 1547 1547 1547 1546 1546 1545 1544 1543 1543 1541 1540 1539 1538 1537 1536 1535 1534 1533 1531 1530
1513 1515 1518 1520 1522 1524 1527 1529 1531 1533 1534 1536 1537 1539 1540 1541 1542 1543 1543 1544 1544 1544 1544 1544 1544 1544 1543 1543 1542 1541 1540 1539 1538 1537 1536 1535 1534 1533 1532 1530 1529 1528 1526
1510 1512 1515 1517 1520 1522 1524 1526 1528 1529 1531 1532 1534 1535 1537 1537 1538 1539 1540 1540 1540 1540 1541 1541 1541 1540 1540 1540 1539 1538 1538 1536 1535 1534 1533 1532 1531 1530 1528 1527 1525 1524 1522
1508 1510 1512 1514 1516 1519 1521 1522 1524 1526 1527 1529 1531 1532 1533 1534 1535 1536 1536 1537 1537 1537 1537 1537 1537 1537 1537 1536 1536 1535 1534 1533 1532 1531 1530 1529 1527 1526 1525 1523 1522 1520 1519
1505 1507 1509 1511 1513 1515 1517 1519 1521 1523 1525 1526 1528 1529 1530 1531 1532 1532 1533 1533 1534 1534 1534 1534 1534 1534 1534 1533 1533 1532 1531 1530 1529 1528 1527 1525 1524 1522 1521 1520 1519 1517 1515
1502 1504 1506 1508 1510 1512 1513 1515 1517 1519 1521 1523 1524 1525 1526 1527 1528 1529 1530 1530 1531 1531 1531 1531 1531 1531 1530 1530 1530 1529 1528 1527 1526 1525 1523 1522 1521 1519 1517 1516 1515 1513 1512
1499 1501 1503 1504 1506 1508 1510 1512 1513 1515 1516 1518 1520 1521 1522 1524 1525 1526 1526 1527 1527 1527 1527 1527 1527 1527 1527 1527 1526 1526 1525 1524 1523 1522 1520 1519 1517 1516 1514 1512 1511 1509 1508
1496 1498 1500 1501 1503 1505 1507 1508 1510 1511 1513 1514 1516 1517 1519 1520 1521 1522 1522 1523 1523 1523 1524 1524 1524 1524 1523 1523 1523 1522 1521 1521 1520 1519 1517 1516 1514 1513 1511 1509 1508 1506 1504
1493 1494 1496 1498 1500 1501 1503 1504 1506 1507 1509 1510 1511 1513 1514 1515 1516 1517 1518 1519 1519 1519 1520 1520 1520 1520 1519 1519 1519 1518 1518 1517 1516 1515 1514 1512 1511 1509 1507 1506 1504 1502 1500
1489 1491 1493 1495 1496 1498 1499 1501 1502 1504 1505 1506 1508 1509 1510 1511 1512 1513 1514 1515 1515 1516 1516 1516 1516 1516 1516 1516 1515 1515 1514 1513 1512 1511 1510 1508 1507 1505 1504 1502 1500 1498 1497
1485 1487 1489 1491 1493 1494 1496 1497 1499 1500 1501 1503 1504 1506 1507 1508 1508 1509 1510 1511 1511 1512 1512 1512 1512 1512 1512 1511 1511 1511 1510 1509 1508 1507 1506 1505 1503 1502 1500 1498 1496 1494 1492
1482 1483 1485 1487 1489 1491 1493 1494 1495 1496 1497 1498 1500 1501 1502 1503 1504 1505 1506 1507 1507 1508 1508 1508 1508 1508 1508 1508 1507 1507 1506 1505 1505 1504 1502 1501 1499 1498 1496 1494 1492 1490 1488
1478 1480 1481 1483 1485 1487 1488 1490 1491 1492 1493 1494 1495 1497 1498 1499 1500 1501 1502 1503 1503 1504 1504 1504 1504 1504 1504 1504 1503 1503 1502 1501 1500 1499 1498 1497 1495 1493 1492 1490 1488 1486 1484
1475 1476 1478 1479 1481 1483 1484 1486 1487 1488 1489 1490 1491 1493 1494 1495 1496 1497 1498 1498 1499 1499 1499 1499 1500 1500 1500 1500 1499 1498 1498 1497 1496 1495 1494 1492 1490 1489 1487 1485 1483 1481 1479
1471 1472 1474 1476 1477 1478 1480 1481 1483 1484 1485 1486 1487 1488 1489 1490 1491 1492 1493 1494 1494 1495 1495 1495 1495 1495 1495 1495 1495 1494 1493 1492 1491 1490 1489 1487 1486 1484 1482 1480 1478 1476 1474